This demonstration page uses our WeatherBlox Daily Observations layout. Learn more.

38.88101, -77.10428

Hourly Observations for August 19, 2018

Temp ( °F °C ) Dew Point ( °F °C ) Humidity (%) Winds ( mph kmh ) Pressure ( in mb ) Visibility ( mi km ) Precip ( " mm )
12:52 am 00:52 Partly Cloudy 79 26.1 68 20 69 69 NW 6 9 29.85 1011 10 16.0934 0 0
1:52 am 01:52 Mostly Cloudy 77 25 69 20.6 77 77 NNW 8 13 29.85 1011 10 16.0934 0 0
2:52 am 02:52 Partly Cloudy 75 23.9 69 20.6 82 82 NNW 7 11 29.84 1011 10 16.0934 0 0
3:52 am 03:52 Mostly Cloudy 75 23.9 70 21.1 84 84 NNW 8 13 29.86 1011 10 16.0934 0 0
4:52 am 04:52 Mostly Cloudy 74 23.3 68 20 82 82 NNW 10 17 29.86 1011 10 16.0934 0 0
5:24 am 05:24 Mostly Cloudy 73 22.8 67 19.4 81 81 NW 9 15 29.88 1012 10 16.0934 0 0
5:52 am 05:52 Mostly Cloudy 73 22.8 66 18.9 79 79 NNW 10 17 29.88 1012 10 16.0934 0 0
6:52 am 06:52 Partly Cloudy 72 22.2 66 18.9 82 82 N 8 13 29.9 1013 10 16.0934 0 0
7:48 am 07:48 Mostly Cloudy 73 23 64 18 74 74 NNW 9 15 29.91 1013 10 16.0934 0 0
7:52 am 07:52 Mostly Cloudy 73 22.8 66 18.9 79 79 NNW 10 17 29.91 1013 10 16.0934 0 0
8:48 am 08:48 Mostly Sunny 75 24 66 19 74 74 NNW 8 13 29.94 1014 10 16.0934 0 0
8:52 am 08:52 Mostly Sunny 75 23.9 66 18.9 74 74 N 8 13 29.93 1014 10 16.0934 0 0
9:52 am 09:52 Partly Cloudy 78 25.6 67 19.4 69 69 N 9 15 29.95 1014 10 16.0934 0 0
10:34 am 10:34 Mostly Cloudy 80 26.7 67 19.4 64 64 N 7 11 29.94 1014 10 16.0934 0 0
10:52 am 10:52 Mostly Cloudy 81 27.2 67 19.4 62 62 N 7 11 29.96 1014 10 16.0934 0 0
10:59 am 10:59 Mostly Cloudy 81 27.2 67 19.4 62 62 NNW 6 9 29.94 1014 10 16.0934 0 0
11:52 am 11:52 Partly Cloudy 82 27.8 66 18.9 58 58 N 8 13 29.95 1014 10 16.0934 0 0
12:52 pm 12:52 Mostly Cloudy 82 27.8 64 17.8 55 55 NW 8 13 29.95 1014 10 16.0934 0 0
1:52 pm 13:52 Mostly Cloudy 83 28.3 64 17.8 53 53 NNW 9 15 29.95 1014 10 16.0934 0 0
2:52 pm 14:52 Mostly Cloudy 86 30 64 17.8 48 48 NNW 7 11 29.95 1014 9 14.48406 0 0
3:52 pm 15:52 Mostly Cloudy 85 29.4 66 18.9 53 53 N 9 15 29.94 1014 10 16.0934 0 0
4:52 pm 16:52 Mostly Cloudy 84 28.9 65 18.3 53 53 ENE 8 13 29.94 1014 10 16.0934 0 0
5:52 pm 17:52 Mostly Cloudy 82 27.8 66 18.9 58 58 NE 8 13 29.96 1015 10 16.0934 0 0
6:52 pm 18:52 Mostly Cloudy 81 27.2 67 19.4 62 62 NE 9 15 29.96 1015 10 16.0934 0 0
7:52 pm 19:52 Cloudy 79 26.1 67 19.4 67 67 NE 10 17 29.98 1015 10 16.0934 0 0
8:13 pm 20:13 Cloudy 78 25.6 69 20.6 74 74 E 13 20 30 1016 10 16.0934 0 0
8:52 pm 20:52 Cloudy 77 25 68 20 74 74 ENE 17 28 30 1016 10 16.0934 0 0
8:58 pm 20:58 Cloudy 77 25 68 20 74 74 ENE 16 26 30 1016 10 16.0934 0 0
9:52 pm 21:52 Cloudy 75 23.9 68 20 79 79 ENE 14 22 30.03 1017 10 16.0934 0 0
10:52 pm 22:52 Mostly Cloudy 75 23.9 68 20 79 79 NE 12 19 30.04 1017 10 16.0934 0 0
11:25 pm 23:25 Cloudy 74 23.3 69 20.6 85 85 NE 9 15 30.03 1017 10 16.0934 0 0
11:52 pm 23:52 Cloudy 75 23.9 69 20.6 82 82 NE 9 15 30.04 1017 10 16.0934 0 0

Powered by AerisWeather